www.pogodaiklimat.ru

Погода и климат >> Архив погоды >> Австрия >> Андау


ПОГОДА в Андау

  • Прогноз погоды в Андау
  • Монитор погоды в Андау

АРХИВ ПОГОДЫ в Андау

Время (UTC), дата Ветер
(напр.,м/с)
 
Видим.   Явления Облачность Т
(С)
Тd
(С)
f
(%)
Тe
(С)
Тes
(С)
Комфортность P
(гПа)
Po
(гПа)
Тmin
(С)
Tmax
(С)
R
(мм)
R24
(мм)
S
(см)
01 16.05 СЗ 5 н/о ливневой дождь {осадки} н/о +6.5 +5.6 94 +2 +2 1014.8 1000.0 0.2
02 16.05 СЗ 5 н/о осадки н/о +6.5 +5.7 95 +2 +2 1014.7 999.9 0.8
03 16.05 СЗ 4 н/о осадки {ливн. осадки} н/о +6.5 +5.9 96 +3 +3 1014.5 999.7 2
04 16.05 СЗ 4 н/о в посл. час осадки н/о +6.4 +5.8 96 +2 +2 1014.6 999.8 1
05 16.05 СЗ 3 н/о ливневой дождь н/о +6.6 +5.9 95 +3 +3 1014.9 1000.1 0.1
06 16.05 СЗ 4 н/о ливневой дождь н/о +6.9 +6.1 95 +3 +3 1015.2 1000.4 +6.4 +7.1 5
07 16.05 СЗ 4 н/о н/о +7.6 +6.4 92 +4 +4 1015.3 1000.5 0.0
08 16.05 СЗ 3 н/о н/о +8.5 +7.1 91 +6 +6 1015.1 1000.4
09 16.05 СЗ 3 н/о н/о +9.3 +7.3 87 +7 +7 1015.0 1000.3 0.0
10 16.05 СЗ 3 н/о н/о +9.4 +7.4 87 +7 +7 1015.1 1000.4
11 16.05 СЗ 2 н/о н/о +10.0 +7.8 86 +8 +8 1014.8 1000.2
12 16.05 С 2 н/о н/о +10.5 +8.0 84 +9 +9 1014.6 1000.0 0.0
13 16.05 С 2 н/о н/о +11.3 +8.6 83 +10 +10 1014.4 999.8
14 16.05 СВ 1 н/о н/о +11.5 +8.3 81 +11 +11 1014.3 999.8
15 16.05 С 1 н/о н/о +13.2 +8.8 75 +13 +13 1013.8 999.3
16 16.05 В 1 н/о н/о +13.4 +8.8 74 +14 +14 1013.6 999.2
17 16.05 Ю 1 н/о н/о +12.1 +8.4 78 +12 +12 1013.5 999.0
18 16.05 Ю 1 н/о н/о +10.7 +8.7 87 +10 +10 1013.8 999.2 +6.9 +13.7 0.0
19 16.05 Ю 1 н/о н/о +9.9 +8.2 89 +9 +9 1013.9 999.3
20 16.05 ЮВ 1 н/о н/о +9.2 +8.2 93 +8 +8 1014.4 999.7
21 16.05 Ю 1 н/о н/о +8.4 +7.5 94 +8 +8 1014.0 999.3 0.0
22 16.05 ЮВ 1 н/о н/о +7.4 +6.9 97 +6 +6 1014.1 999.3
23 16.05 ЮВ 1 н/о н/о +6.7 +6.3 97 +5 +5 1013.8 999.0
00 17.05 ЮВ 1 н/о н/о +6.5 +6.2 98 +5 +5 1013.5 998.7 0.0
01 17.05 В 1 н/о н/о +5.7 +5.4 98 +4 +4 1013.2 998.4
02 17.05 В 2 н/о н/о +5.4 +5.3 99 +3 +3 1012.9 998.0
03 17.05 ЮВ 1 н/о н/о +5.6 +5.5 99 +4 +4 1012.6 997.8
04 17.05 В 1 н/о н/о +5.5 +5.3 99 +4 +4 1012.9 998.1
05 17.05 ЮВ 1 н/о н/о +6.4 +6.3 99 +5 +5 1013.3 998.5
06 17.05 ЮЗ 1 н/о н/о +9.3 +8.4 94 +9 +9 1013.2 998.6 +5.2 +10.8 0.0
07 17.05 Ю 2 н/о н/о +12.1 +9.6 85 +11 +11 1013.2 998.7
08 17.05 ЮВ 3 н/о н/о +13.2 +9.3 77 +12 +12 1013.2 998.8
09 17.05 ЮВ 2 н/о н/о +13.2 +8.5 73 +13 +13 1013.0 998.6
10 17.05 ЮВ 3 н/о н/о +13.7 +8.8 72 +13 +13 1013.0 998.6
11 17.05 ЮВ 3 н/о н/о +14.2 +8.7 69 +13 +13 1012.9 998.5
12 17.05 ЮВ 3 н/о н/о +14.2 +9.2 72 +13 +13 1012.8 998.4
13 17.05 ЮВ 3 н/о н/о +14.3 +8.6 69 +13 +13 1012.5 998.1
14 17.05 ЮВ 4 н/о н/о +13.3 +8.6 73 +12 +12 1012.5 998.1
15 17.05 ЮВ 3 н/о н/о +12.7 +8.0 73 +11 +11 1012.6 998.1
16 17.05 Ю 2 н/о н/о +13.2 +8.2 72 +13 +13 1012.2 997.8
17 17.05 Ю 2 н/о н/о +13.3 +8.1 71 +13 +13 1011.8 997.4
18 17.05 Ю 2 н/о н/о +12.2 +8.2 77 +11 +11 1011.8 997.3 +8.9 +14.7
19 17.05 ЮВ 2 н/о н/о +10.6 +8.0 84 +9 +9 1012.1 997.5
20 17.05 В 1 н/о н/о +9.4 +7.4 87 +9 +9 1012.3 997.7
21 17.05 ЮВ 1 н/о н/о +8.6 +7.4 92 +8 +8 1012.4 997.7
22 17.05 В 1 н/о н/о +7.9 +6.9 93 +7 +7 1012.4 997.7
23 17.05 В 1 н/о н/о +7.8 +6.9 94 +7 +7 1012.2 997.5
00 18.05 ЮВ 1 н/о н/о +7.5 +6.7 95 +6 +6 1012.1 997.4
01 18.05 В 1 н/о н/о +7.4 +6.9 97 +6 +6 1011.7 997.0
02 18.05 В 2 н/о н/о +7.6 +7.0 96 +5 +5 1011.4 996.7
03 18.05 В 1 н/о н/о +7.8 +7.0 95 +7 +7 1011.1 996.4
04 18.05 В 1 н/о н/о +7.3 +6.6 95 +6 +6 1011.0 996.3
05 18.05 В 1 н/о н/о +9.3 +7.9 91 +9 +9 1011.0 996.4
06 18.05 ЮВ 2 н/о н/о +12.5 +9.4 81 +12 +12 1010.8 996.4 +7.0 +12.5
07 18.05 Ю 3 н/о н/о +13.3 +10.1 81 +12 +12 1011.1 996.7 0.0
08 18.05 ЮВ 4 н/о н/о +15.5 +11.0 75 +15 +15 1011.1 996.8
09 18.05 ЮВ 3 н/о н/о +16.6 +10.8 69 +16 +16 1010.9 996.7 0.0
10 18.05 ЮВ 3 н/о н/о +17.0 +10.7 66 +17 +17 1010.9 996.7
11 18.05 ЮВ 3 н/о н/о +18.8 +11.9 64 +20 +20 1010.4 996.3
12 18.05 Ю 2 н/о н/о +19.7 +11.6 60 +22 +22 комфорт 1009.9 995.8 0.0
13 18.05 ЮВ 2 н/о н/о +19.7 +11.1 58 +22 +22 комфорт 1009.3 995.2
14 18.05 ЮВ 2 н/о н/о +20.8 +11.8 56 +24 +24 комфорт 1008.4 994.4
15 18.05 Ю 1 н/о н/о +20.5 +11.0 54 +23 +23 комфорт 1007.8 993.8
16 18.05 Ю 2 н/о н/о +20.8 +10.6 52 +23 +23 комфорт 1007.4 993.4 0.0
17 18.05 Ю 1 н/о н/о +20.5 +10.8 54 +23 +23 комфорт 1007.3 993.3
18 18.05 штиль 0 н/о н/о +19.0 +11.5 62 +20 +20 1007.4 993.3 +12.1 +21.5 0.0
19 18.05 штиль 0 н/о н/о +16.2 +11.7 75 +16 +16 1007.9 993.7
20 18.05 ЮЗ 1 н/о н/о +14.7 +11.9 83 +15 +15 1008.4 994.1
21 18.05 штиль 0 н/о н/о +13.3 +11.3 88 +13 +13 1007.9 993.5
22 18.05 штиль 0 н/о н/о +12.4 +10.9 91 +12 +12 1007.7 993.3
23 18.05 штиль 0 н/о н/о +11.7 +10.5 92 +11 +11 1007.3 992.9
00 19.05 штиль 0 н/о н/о +10.7 +9.7 94 +10 +10 1007.1 992.6
01 19.05 штиль 0 н/о н/о +10.2 +9.4 95 +9 +9 1006.9 992.4
02 19.05 В 1 н/о н/о +10.3 +9.9 97 +10 +10 1006.8 992.3
03 19.05 СВ 1 н/о н/о +9.7 +9.2 97 +9 +9 1006.6 992.1
04 19.05 В 1 н/о н/о +9.8 +9.4 97 +9 +9 1006.7 992.2
05 19.05 В 1 н/о н/о +11.0 +10.2 95 +11 +11 1006.7 992.2
06 19.05 СВ 1 н/о н/о +13.9 +11.8 87 +14 +14 1006.3 992.0 +9.4 +19.7
07 19.05 ЮВ 1 н/о н/о +14.4 +12.5 88 +15 +15 1006.6 992.3
08 19.05 ЮВ 1 н/о н/о +15.0 +11.9 82 +16 +16 1006.6 992.4
09 19.05 З 1 н/о в посл. час осадки н/о +14.7 +12.4 86 +15 +15 1006.3 992.0 0.0
10 19.05 СЗ 1 н/о н/о +15.8 +12.6 81 +16 +16 1006.0 991.8 0.0
11 19.05 В 2 н/о н/о +19.2 +13.8 71 +21 +21 комфорт 1005.4 991.4
12 19.05 ЮВ 2 н/о {осадки} н/о +19.7 +13.8 69 +22 +22 комфорт 1005.1 991.1 0.0
13 19.05 В 2 н/о н/о +21.6 +14.3 63 +25 +25 комфорт 1004.7 990.8
14 19.05 ЮВ 3 н/о н/о +19.9 +13.8 68 +22 +22 комфорт 1004.7 990.7
15 19.05 ЮВ 2 н/о н/о +20.1 +13.2 64 +23 +23 комфорт 1004.3 990.3
16 19.05 ЮВ 1 н/о н/о +20.1 +13.9 67 +23 +23 комфорт 1003.8 989.8
17 19.05 В 1 н/о н/о +19.6 +14.7 73 +23 +23 комфорт 1003.7 989.7
18 19.05 ЮВ 1 н/о н/о +19.1 +14.7 76 +22 +22 комфорт 1003.6 989.6 +13.0 +22.0 0.0
19 19.05 В 1 н/о н/о +17.6 +14.1 80 +19 +19 1003.3 989.2
20 19.05 ЮЗ 1 н/о н/о +16.2 +12.5 79 +17 +17 1003.3 989.2
21 19.05 штиль 0 н/о н/о +15.0 +12.5 85 +15 +15 1003.2 989.0
22 19.05 ЮВ 1 н/о н/о +14.2 +12.6 90 +14 +14 1003.7 989.5
23 19.05 Ю 1 н/о н/о +13.8 +12.0 89 +14 +14 1003.3 989.0
00 20.05 Ю 1 н/о н/о +13.7 +11.9 89 +14 +14 1002.8 988.5
01 20.05 Ю 1 н/о н/о +13.8 +12.1 89 +14 +14 1002.2 988.0 0.0
02 20.05 ЮВ 2 н/о осадки н/о +13.6 +12.7 94 +13 +13 1002.5 988.2 0.4
03 20.05 ЮВ 2 н/о осадки н/о +13.3 +12.8 97 +12 +12 1002.4 988.1 1
04 20.05 В 2 н/о осадки н/о +13.1 +12.8 98 +12 +12 1002.5 988.2 2
05 20.05 ЮВ 2 н/о осадки н/о +13.0 +12.7 98 +12 +12 1002.7 988.4 2
06 20.05 ЮВ 3 н/о осадки н/о +13.3 +13.0 98 +12 +12 1003.1 988.8 +13.0 +19.2 8
07 20.05 ЮВ 3 н/о осадки н/о +14.0 +13.6 97 +13 +13 1003.3 989.1 0.9
08 20.05 ЮВ 3 н/о в посл. час осадки н/о +16.2 +14.3 89 +16 +16 1003.3 989.2 0.0
09 20.05 ЮВ 4 н/о {осадки} н/о +18.1 +14.0 77 +18 +18 1003.2 989.2 0.9
10 20.05 ЮВ 3 н/о н/о +18.9 +13.9 73 +20 +20 1003.5 989.5 0.0
11 20.05 ЮВ 5 н/о осадки н/о +18.1 +14.8 81 +18 +18 1003.5 989.5 0.1
12 20.05 ЮВ 3 н/о {ливн. осадки} н/о +19.9 +14.2 70 +22 +22 комфорт 1003.3 989.3 1
13 20.05 Ю 4 н/о н/о +19.4 +12.5 64 +21 +21 комфорт 1003.3 989.3
14 20.05 Ю 3 н/о н/о +19.9 +12.1 61 +22 +22 комфорт 1003.3 989.3
15 20.05 Ю 2 н/о н/о +19.6 +13.2 67 +22 +22 комфорт 1003.2 989.2 0.0
16 20.05 Ю 4 н/о н/о +20.3 +10.9 55 +22 +22 комфорт 1002.9 989.0 0.0
17 20.05 Ю 3 н/о н/о +19.3 +10.4 56 +21 +21 комфорт 1002.9 988.9
18 20.05 Ю 2 н/о н/о +17.2 +11.4 69 +18 +18 1003.1 989.0 +13.2 +20.8 1
19 20.05 ЮВ 3 н/о н/о +15.6 +10.8 73 +15 +15 1003.3 989.1
20 20.05 Ю 1 н/о н/о +14.5 +10.2 75 +15 +15 1004.1 989.9
21 20.05 ЮВ 2 н/о н/о +13.4 +9.7 78 +13 +13 1004.3 990.0
22 20.05 Ю 2 н/о н/о +12.6 +9.3 80 +12 +12 1004.2 989.9
23 20.05 Ю 2 н/о н/о +11.8 +9.0 83 +11 +11 1004.2 989.8
00 21.05 Ю 2 н/о н/о +10.8 +9.0 89 +9 +9 1004.1 989.7
01 21.05 Ю 2 н/о н/о +10.6 +8.8 89 +9 +9 1004.0 989.6
02 21.05 Ю 1 н/о н/о +10.2 +8.6 90 +10 +10 1004.2 989.7
03 21.05 Ю 1 н/о н/о +10.3 +8.5 89 +10 +10 1004.1 989.6
04 21.05 Ю 2 н/о н/о +10.1 +8.5 90 +9 +9 1004.1 989.6
05 21.05 Ю 1 н/о н/о +11.8 +9.3 85 +12 +12 1004.5 990.1
06 21.05 Ю 1 н/о н/о +14.0 +10.0 77 +14 +14 1004.7 990.4 +10.0 +17.6
07 21.05 Ю 1 н/о н/о +15.9 +11.2 74 +17 +17 1005.1 990.9
08 21.05 Ю 1 н/о н/о +18.0 +12.5 70 +19 +19 1005.3 991.2
09 21.05 Ю 1 н/о н/о +19.5 +12.2 63 +22 +22 комфорт 1005.3 991.3 0.0
10 21.05 Ю 1 н/о н/о +19.0 +12.0 64 +21 +21 комфорт 1005.5 991.5
11 21.05 З 2 н/о н/о +19.9 +11.8 60 +22 +22 комфорт 1005.8 991.8
12 21.05 З 4 н/о н/о +16.5 +12.5 77 +16 +16 1006.9 992.7 0.0
13 21.05 ЮЗ 1 н/о в посл. час осадки н/о +17.3 +13.3 77 +18 +18 1006.8 992.7 0.3
14 21.05 ЮЗ 1 н/о н/о +17.6 +13.5 77 +19 +19 1007.1 993.0 0.0
15 21.05 ЮЗ 2 н/о {осадки} н/о +17.7 +12.9 73 +18 +18 1007.3 993.2 0.3
16 21.05 ЮЗ 2 н/о н/о +17.3 +13.3 77 +18 +18 1007.4 993.3 0.0
17 21.05 ЮЗ 2 н/о н/о +16.3 +13.0 81 +16 +16 1007.8 993.6
18 21.05 ЮЗ 1 н/о {осадки} н/о +15.7 +12.8 83 +16 +16 1007.9 993.7 +13.7 +20.6 0.3
19 21.05 З 1 н/о н/о +15.7 +12.2 80 +16 +16 1008.3 994.1
20 21.05 СЗ 1 н/о н/о +15.5 +10.7 73 +16 +16 1008.8 994.5
21 21.05 З 1 н/о осадки н/о +15.0 +11.2 78 +16 +16 1008.9 994.6 0.4
22 21.05 З 2 н/о ливневой дождь н/о +14.2 +11.4 83 +14 +14 1008.8 994.5 0.5
23 21.05 З 2 н/о н/о +14.2 +11.5 84 +14 +14 1008.8 994.5 0.0
00 22.05 З 2 н/о {ливн. осадки} н/о +14.4 +11.2 81 +14 +14 1008.8 994.5 0.9
01 22.05 З 1 н/о н/о +13.8 +11.0 83 +14 +14 1008.8 994.5
02 22.05 З 1 н/о н/о +13.0 +10.4 84 +13 +13 1008.6 994.2 0.0
03 22.05 З 1 н/о н/о +12.4 +10.2 86 +12 +12 1008.6 994.2 0.0
04 22.05 З 2 н/о н/о +13.0 +10.7 86 +12 +12 1008.9 994.5
05 22.05 З 3 н/о осадки н/о +13.9 +11.8 87 +13 +13 1009.2 994.9 0.9
06 22.05 З 3 н/о в посл. час осадки н/о +13.8 +12.0 89 +13 +13 1009.7 995.4 +12.4 +15.8 3
07 22.05 З 2 н/о осадки н/о +14.1 +12.7 91 +14 +14 1009.7 995.4 0.8
08 22.05 З 4 н/о осадки н/о +14.4 +12.5 88 +13 +13 1010.0 995.7 0.3
09 22.05 З 3 н/о ливневой дождь н/о +14.7 +13.0 90 +14 +14 1010.1 995.8 2
10 22.05 З 5 н/о в посл. час осадки н/о +15.8 +12.4 80 +15 +15 1010.5 996.2 0.1
11 22.05 З 5 н/о осадки н/о +15.4 +12.7 84 +14 +14 1011.1 996.8 0.3
12 22.05 З 3 н/о ливневой дождь н/о +15.1 +12.6 85 +14 +14 1011.2 996.9 3
13 22.05 З 4 н/о н/о +15.6 +12.2 80 +15 +15 1011.3 997.0 0.0
14 22.05 З 5 н/о в посл. час осадки н/о +16.1 +11.7 75 +15 +15 1011.7 997.4 0.0
15 22.05 З 5 н/о {осадки} н/о +16.2 +11.4 73 +15 +15 1011.9 997.6 0.0
16 22.05 З 4 н/о н/о +15.9 +11.6 76 +15 +15 1012.1 997.8 0.0
17 22.05 З 6 н/о ливневой дождь н/о +15.6 +11.3 76 +14 +14 1012.2 997.9 0.0
18 22.05 З 5 н/о осадки {ливн. осадки} н/о +14.2 +11.9 86 +12 +12 1012.8 998.4 +13.7 +16.2 4
19 22.05 З 3 н/о в посл. час осадки н/о +14.1 +11.8 86 +13 +13 1013.2 998.8 0.1
20 22.05 СЗ 2 н/о н/о +14.1 +11.8 86 +14 +14 1013.6 999.2 0.0
21 22.05 З 3 н/о {осадки} н/о +14.4 +11.5 83 +13 +13 1014.0 999.6 0.1
22 22.05 З 2 н/о н/о +14.3 +11.7 84 +14 +14 1014.1 999.7 0.0
23 22.05 СЗ 5 н/о н/о +14.5 +11.4 82 +13 +13 1014.5 1000.1
00 23.05 СЗ 5 н/о осадки н/о +14.0 +11.5 85 +12 +12 1014.5 1000.1 0.3
01 23.05 СЗ 4 н/о в посл. час осадки н/о +13.6 +11.5 87 +12 +12 1014.5 1000.1 0.1
02 23.05 СЗ 4 н/о н/о +13.4 +11.2 87 +12 +12 1014.6 1000.2

 

Местоположение метеостанции Андау (Австрия): широта 47.77 долгота 17.03 высота над уровнем моря 121 м.

В архиве по умолчанию представлена погода в Андау за последнюю неделю. Архивные данные за месяц целиком и за предыдущие месяцы, начиная с января 2011 года, Вы можете получить, выбрав интересующий диапазон дат из раскрывающегося списка и нажав кнопку "Ввод!".


*Определитесь, кто Вы:
робот инопланетянин человек

Внимание! Время в таблицах - всемирное. Для получения местного времени необходимо прибавить поправку, которая равна 1 ч.

Смотрите также архив погоды в соседних городах и на ближайших метеорологических станциях:

Погода в Мошонмадьяроваре (Венгрия) (22 км)
Погода в Нойзидль-ам-Зе (Австрия) (24 км)
Погода в Нойзидль-ам-Зе (Австрия) (25 км)
Погода в Шопроне (Венгрия) (34 км)
Погода в Айзенштадте (Австрия) (38 км)
Погода в Луцмансбурге (Австрия) (44 км)
Погода в Братислава-Колибе (Словакия) (45 км)
Погода в Зайберсдорфе (Австрия) (46 км)
Погода в Дьере (Венгрия) (49 км)
Погода в Братиславе (Словакия) (49 км)

Пояснения к столбцам:

Ветер - указаны скорость ветра в м/с - средняя за 10 мин, порывы в срок и между сроками (в фигурных скобках) и направление, откуда дует ветер: С - северный, СВ - северо-восточный, В - восточный, ЮВ - юго-восточный, Ю - южный, ЮЗ - юго-западный, З - западный, СЗ - северо-западный.
Видимость - горизонтальная дальность видимости в метрах или километрах. При видимости от 1 до 10 км при отсутствии осадков обычно наблюдается дымка, при ухудшении видимости до 1 км и менее - туман. В сухую погоду видимость может ухудшаться дымом, пылью или мглою.
Явления - указаны атмосферные явления, наблюдавшиеся в срок или в последний час перед сроком; фигурными скобками обозначены явления, наблюдавшиеся между сроками (за 1-3 часа до срока); квадратными скобками обозначены град или гололедные отложения с указанием их диаметра в мм.
Облачность - указаны через наклонную черту общая и нижняя облачность в баллах и высота нижней границы облаков в метрах; квадратными скобками обозначены формы облаков: Ci - перистые, Cs - перисто-слоистые, Cc - перисто-кучевые, Ac - высококучевые, As - высокослоистые, Sc - слоисто-кучевые, Ns - слоисто-дождевые, Cu - кучевые, Cb - кучево-дождевые. Подробнее классификацию облаков см. в Атласе облаков (PDF).
T - Температура воздуха - температура, измеренная на высоте 2 м над землей.
Td - Температура точки росы - температура, при понижении до которой содержащийся в воздухе водяной пар достигнет насыщения.
f - Относительная влажность воздуха - влажноcть воздуха, измеренная на высоте 2 м над землей.
Te - Эффективная температура - температура, которую ощущает одетый по сезону человек в тени. Характеристика душности погоды. При расчете учитывается влияние влажности воздуха и скорости ветра на теплоощущения человека.
Tes - Эффективная температура на солнце - температура, которую ощущает человек, с поправкой на солнечный нагрев. Характеристика знойности погоды. Зависит от высоты солнца над горизонтом, облачности и скорости ветра. Ночью, в пасмурную погоду, а также при ветре 12 м/с и более поправка равна нулю.
P - Атмосферное давление - приведенное к уровню моря атмосферное давление.
Po - Атмосферное давление - измеренное на уровне метеостанции атмосферное давление.
Tmin - Минимальная температура - минимум температуры воздуха на высоте 2 м над землей.
Tmax - Максимальная температура - максимум температуры воздуха на высоте 2 м над землей.
R - Количество осадков - Количество выпавших осадков за период времени, мм. При наведении курсора мыши на число - период времени, за который выпало указанное количество осадков.
R24 - Количество осадков - Количество выпавших осадков за 24 часа, мм.
S - Снежный покров - Высота снежного покрова, см. При наведении курсора мыши на число - состояние снежного покрова и степень покрытия местности в баллах.